Location: Unspecified
(0.0000°N, 0.0000°E)
Time: 07:34:38
(UTC+00:00)

TIANHUI 5D - Pass Details

Date: 19 August 2024
Orbit: 603 x 606 km, 97.8° (Epoch: 07 September)

Event Time Altitude Azimuth Distance (km) Brightness Sun altitude
Rises 05:31:06 0° 24° (NNE) 2,839 ? -7.9°
Reaches altitude 10° 05:33:21 10° 32° (NNE) 1,940 ? -7.4°
Maximum altitude 05:37:18 40° 102° (ESE) 897 ? -6.4°
Drops below altitude 10° 05:41:16 10° 171° (S) 1,949 ? -5.4°
Sets 05:43:33 0° 179° (S) 2,855 ? -4.9°
